GPS BIIR-13

Last updated on Feb. 24, 2020, 4:46 a.m. UTC

1 28474U 04045A   20054.57018442 -.00000047  00000-0  00000-0 0  9992
2 28474  54.8951  57.5396 0200111 265.1055  91.9106  2.00567601112189
UTC
Height (km)
Latitude
Longitude
Inclination
Orbital Period
UTC large
Height (km)
Speed (km/s)
/
Latitude / Longitude
Inclination (degrees)
Orbital Period (minutes)
Azimuth
Elevation
Range (km)
Doppler Factor
iOS Compass Heading
iOS Angle

Next 30 passes for location: Hong Kong

Rise time Rise Azimuth (degrees) Set time Set Azimuth (degrees) Duration Max altitude (degrees)

No matching passes for this satellites